Location: Alafon
(8.4500°N, 4.2333°E)
Time: 12:36:54
(UTC+00:00)

Vanguard 1 Rocket - Pass Details

Date: 26 July 2021
Orbit: 650 x 4226 km, 34.3° (Epoch: 27 September)

Event Time Altitude Azimuth Distance (km) Brightness Sun altitude
Rises 19:05:01 0° 303° (WNW) 2,947 11.8 -14.7°
Reaches altitude 10° 19:07:07 10° 302° (WNW) 2,054 10.6 -15.1°
Maximum altitude 19:11:31 79° 216° (SW) 765 7.0 -16.1°
Enters shadow 19:14:56 25° 131° (SE) 1,735 8.3 -16.9°
